222  
ASUS43 KGLD 280708  
RWRGLD  
 
GOODLAND FORECAST AREA HOURLY WEATHER ROUNDUP  
NATIONAL WEATHER SERVICE GOODLAND KS  
100 AM MDT THU OCT 28 2021  
   
..OFFICIAL OBSERVATIONS
 
 
 
CITY SKY/WX TMP DP RH WIND PRES REMARKS
 
GOODLAND KS PTCLDY 47 28 47 N22G33 29.96R  
HILL CITY KS CLEAR 46 32 58 NW15G24 29.84R  
IMPERIAL NEB CLOUDY 47 31 53 NW17G29 29.97R  
MCCOOK NEB CLEAR 43 30 60 NW18 29.90R  
AKRON CO CLOUDY 44 29 55 NW22G32 30.07R  
BURLINGTON CO CLOUDY 48 25 40 N17G26 30.01R  
LIMON CO PTCLDY 40 26 57 N16 30.08R  

 
   
..UNOFFICIAL OBSERVATIONS
 
 
 
CITY SKY/WX TMP DP RH WIND PRES REMARKS
 
COLBY KS CLEAR 43 28 54 NW21G29 29.93R  
NORTON KS FAIR 43 32 65 NW14G20 29.87S  
SHARON SPRINGS N/A 47 24 40 NW15G25 N/A  
YUMA CO FAIR 45 18 33 W17G24 30.04R  

 
 
 
CLICK HERE TO GO TO PREVIOUS BULLETINS.

The Nexlab KS Page
The Nexlab CO Page
The Nexlab NE Page Main Text Page